Flag for Canada Weather past 2 weeks in Churchill, Manitoba, Canada

Now
46 °F

Passing clouds.


Feels Like: 42 °F
Forecast: 46 / 50 °F
Wind: 8 mph from North

Location: Churchill

Current Time: Sep 5, 2015 at 7:42:01 AM

Latest Report: Sep 5, 2015 at 7:00 AM


Visibility: 8 mi

Pressure: 30.13 "Hg

Humidity: 93%

Dew point: 45 °F

Location of ChurchillLocation

Historic Weather in Churchill — Graph

°F

Churchill temperature yesterday

Maximum temperature yesterday: 54 °F (at 12:00 PM)
Minimum temperature yesterday: 46 °F (at 10:00 PM)
Average temperature yesterday: 50 °F

Past Weeks' High & Low Weather Summary

 TemperatureHumidityPressure
High68 °F (Aug 28, 2:00 PM)100% (Aug 21, 6:00 AM)30.16 "Hg (Aug 21, 6:00 AM)
Low41 °F (Aug 25, 5:00 AM)49% (Aug 27, 1:00 PM)29.58 "Hg (Aug 29, 4:00 AM)
Average51 °F86%29.86 "Hg
* Reported Aug 21 6:00 AM — Sep 5 6:00 AM, Churchill, Weather by CustomWeather, © 2015

Note: Actual official high and low records may vary slightly from our data, if they occured in-between our weather recording intervals... More about our weather records

Advertising

Churchill weather history for previous 24 hours

 ConditionsComfort  
Time TempWeatherWind HumidityBarometerVisibility
6:00 AM
Sat, Sep 5
46 °FMostly cloudy.8 mph100%30.13 "Hg10 mi
5:00 AM46 °FOvercast.7 mph100%30.12 "Hg8 mi
4:00 AM45 °FFog.9 mph100%30.12 "Hg0 mi
3:00 AM45 °FFog.10 mph100%30.10 "Hg0 mi
2:48 AM45 °FFog.9 mph100%30.10 "Hg0 mi
2:00 AM46 °FFog.9 mph93%30.09 "Hg1 mi
1:00 AM46 °FFog.6 mph100%30.09 "Hg3 mi
12:00 AM45 °FFog.2 mph100%30.09 "Hg2 mi
11:00 PM
Fri, Sep 4
46 °FFog.2 mph100%30.08 "Hg1 mi
10:00 PM46 °FFog.9 mph100%30.05 "Hg1 mi
9:00 PM48 °FFog.7 mph94%30.06 "Hg1 mi
8:00 PM48 °FScattered clouds.9 mph94%30.03 "Hg15 mi
7:00 PM50 °FScattered clouds.8 mph94%30.00 "Hg15 mi
6:00 PM52 °FScattered clouds.13 mph88%29.98 "Hg15 mi
5:00 PM52 °FBroken clouds.15 mph88%29.98 "Hg15 mi
4:00 PM52 °FPartly sunny.15 mph88%29.95 "Hg15 mi
3:00 PM52 °FPartly sunny.13 mph88%29.95 "Hg15 mi
2:00 PM50 °FPartly sunny.8 mph94%29.93 "Hg15 mi
1:00 PM54 °FPartly sunny.13 mph88%29.90 "Hg15 mi
12:00 PM54 °FPartly sunny.10 mph88%29.88 "Hg15 mi
11:00 AM52 °FPartly sunny.7 mph94%29.87 "Hg15 mi
10:00 AM50 °FFog.5 mph100%29.86 "Hg3 mi
9:00 AM50 °FFog.No wind100%29.83 "Hg1 mi
8:00 AM48 °FFog.No wind100%29.82 "Hg1 mi
7:00 AM48 °FFog.3 mph100%29.81 "Hg0 mi
Weather by CustomWeather, © 2015

See weather overviewHow to use our weather pages